Vertical_Velocity
-0 9 2 3 3 4 3 3 2 -2 2 5 2 0 1 1 -1 -2 -3 -3 -1 7 2 6 -11 -2 9 -4 4 -39 29 -7 17 -17 -9 -2 -2 3 9 -0 6 4 3 -2
8 3 3 1 1 4 -0 2 -2 -3 0 7 -1 -1 0 0 4 5 4 -4 0 -7 -10 12 -5 2 8 -5 5 -23 19 -2 6 -2 -6 -3 -0 6 1 2 6 -3 3 3
5 7 -0 3 -2 -1 -3 3 -1 9 -4 1 -0 6 2 -2 -3 -6 -7 2 -5 5 -0 -6 6 -2 12 -1 -7 19 72 11 0 -1 0 -2 6 5 -5 -5 -4 1 0 4
2 1 1 -1 1 5 1 4 3 1 4 4 -1 1 1 0 -2 -3 -1 -6 1 2 -2 6 -3 -6 3 11 7 -25 18 6 21 11 8 7 -2 -3 0 -0 -5 0 5 3
10 -1 -1 0 7 3 1 3 2 1 1 2 -6 3 -1 -4 -7 -5 -4 1 -1 0 -2 -2 3 -2 -6 7 25 9 3 66 -0 -6 -5 -2 -3 -5 3 4 4 5 -3 5
0 -2 2 4 -2 2 -1 0 2 1 3 4 6 1 -3 1 5 -5 -3 -3 1 -1 -2 -3 7 6 -3 8 -3 6 1 -75 5 -2 -4 -2 -2 1 2 2 9 2 15 -3
-0 1 -0 2 -0 2 -6 -6 -0 -2 -4 8 1 0 10 -0 0 5 3 -0 -0 -1 -2 -0 18 1 4 15 -3 -2 -1 1 7 7 -20 -0 10 2 -1 -1 4 8 4 9
2 9 1 1 5 8 1 7 1 0 1 0 -2 1 6 2 3 3 1 3 0 -0 1 2 8 -3 -2 6 3 -7 -4 -0 -3 1 12 7 -11 -26 -2 1 -2 5 5 4
1 2 2 -1 0 7 -2 -2 5 1 1 6 -1 4 8 -2 -2 -2 -2 -3 1 -1 2 5 2 -0 5 6 6 2 -4 -5 5 8 -2 2 9 -3 -6 -2 -3 -0 -3 -2
3 2 1 2 2 3 6 4 9 2 -1 -2 -1 2 5 -4 -1 -0 -3 0 -1 3 2 4 5 3 6 2 8 8 7 4 4 3 3 0 6 3 -11 3 -1 -0 4 2
2 5 8 4 3 3 4 -0 -0 6 1 4 1 10 5 4 3 2 3 0 2 0 0 4 4 6 6 4 6 6 1 2 1 2 0 -2 1 -2 -0 -3 5 1 -0 2
3 3 0 2 3 -0 1 2 3 5 -2 -0 2 8 1 2 1 0 1 1 2 2 0 1 2 5 -1 -1 -2 3 2 -2 -3 -2 -1 -1 1 2 -2 2 1 -3 -2 -1
4 1 1 14 11 5 2 -0 1 1 2 -2 4 9 0 -0 -0 0 1 -0 -1 1 1 4 2 -0 5 2 1 -1 1 0 -2 1 -3 -3 -2 -3 2 -4 -1 1 -1 -0
1 1 5 5 8 3 1 -1 -0 4 4 2 1 1 2 1 0 1 2 -0 -2 -2 1 3 -2 1 4 2 3 -1 3 2 -2 2 3 -5 0 -2 -0 -1 -0 -2 -2 -2
4 1 3 -2 -0 2 1 1 -1 4 -5 7 3 1 1 0 -0 1 -2 -0 0 -1 -2 1 2 1 2 1 -2 -5 6 2 -2 2 -4 -0 1 -2 3 0 3 0 1 -1
1 -1 1 -5 -0 1 1 -1 0 -0 -2 1 1 -5 0 1 0 1 1 -0 0 0 0 1 -2 -2 -1 -0 0 3 1 0 3 -4 5 -2 -1 -0 -0 -3 -2 -0 -3 -2
1 1 1 -2 -0 1 6 -1 -2 -2 0 -1 2 6 0 2 1 -1 0 -1 -1 -1 -2 -1 1 2 1 -1 -1 -2 -1 -1 -1 -3 -2 -1 -2 -1 -0 -4 -5 -0 0 0
0 2 1 -1 1 5 10 0 1 -2 -1 0 1 -0 -2 -2 -1 -0 -1 -3 -1 -1 -0 0 0 0 1 1 0 -0 1 0 0 0 1 -1 -0 1 3 3 3 3 1 -1
1 1 0 3 1 -5 1 2 -0 -0 -4 -2 -1 0 -1 -0 -1 1 -0 1 -2 -4 -4 -5 -3 -1 0 0 0 1 -0 -1 0 0 -1 1 0 -0 -0 -0 -1 -3 -1 -1
2 3 6 2 2 0 5 1 -1 0 -2 -0 -0 -1 -2 1 4 -5 -8 -2 1 -1 -1 -2 -0 -3 -2 -2 -0 -1 -0 1 -0 -1 -1 -1 -2 -0 0 0 -3 -1 -1 -0
2 3 -1 -1 -0 -6 0 -0 -1 8 10 -1 -1 -2 -1 -2 3 5 -1 -1 1 -2 -1 -0 -0 -1 -1 -2 -3 -0 -0 1 -1 -1 -2 -1 -2 -2 -1 -0 1 -1 -1 -5
-7 -4 -1 3 3 -2 -2 4 7 4 0 -1 -1 -1 -0 1 -2 -2 0 -2 -2 -1 -0 1 -0 -1 -1 -1 -1 -2 -0 -2 -1 -1 -2 -2 -1 -2 -4 -4 -3 -3 -2 -1
4 -7 -4 -6 -9 0 -4 1 -1 -2 -1 -2 -1 -1 -2 -2 -1 -1 -2 -2 -3 -3 -2 -1 -1 1 0 0 -0 0 -4 -3 -2 -1 -1 -1 -1 -1 -2 -2 0 1 1 -1
1 1 0 2 -6 -4 -3 -1 -3 -3 -3 1 -2 -2 -1 -1 0 -0 0 -1 -2 -2 -2 0 -0 -1 -1 -1 -1 3 -2 -1 -2 -1 -0 -1 -0 -2 -2 0 -0 -2 -4 -3
-6 0 -4 -5 -1 -0 -1 -4 -2 -1 -1 0 1 -0 -3 1 -1 0 0 -0 -0 -2 -1 -0 -1 -1 -1 0 -1 -5 -1 -1 -1 -2 -0 -1 -2 -1 -2 -1 -2 -1 -3 -2
-5 -8 -4 -9 -4 -6 -3 -6 3 -0 -3 -3 1 1 -2 0 -2 2 1 1 0 -2 -1 0 -0 -0 -1 -1 -1 -2 -1 -0 -1 -2 -2 -0 -1 -1 -0 -2 -3 3 1 -3
Height
1502 1499 1498 1497 1497 1497 1493 1487 1482 1476 1480 1482 1477 1476 1478 1477 1477 1476 1475 1470 1465 1461 1461 1463 1465 1465 1467 1470 1470 1459 1462 1483 1487 1493 1499 1507 1511 1516 1521 1526 1529 1530 1531 1534
1500 1495 1498 1499 1496 1492 1487 1482 1480 1476 1477 1480 1475 1475 1474 1474 1477 1478 1475 1473 1468 1466 1464 1461 1462 1462 1464 1467 1468 1461 1472 1477 1485 1479 1491 1500 1508 1513 1519 1524 1526 1528 1529 1530
1501 1496 1500 1497 1493 1490 1486 1486 1487 1486 1476 1474 1470 1471 1473 1475 1480 1483 1480 1475 1470 1465 1463 1460 1459 1459 1460 1462 1462 1468 1440 1474 1478 1480 1486 1495 1503 1510 1514 1520 1524 1525 1527 1528
1497 1499 1500 1496 1491 1493 1490 1486 1487 1483 1480 1477 1473 1477 1468 1476 1481 1483 1480 1478 1471 1467 1463 1459 1458 1457 1456 1458 1463 1464 1471 1474 1477 1479 1483 1491 1499 1506 1511 1515 1519 1523 1523 1525
1501 1500 1500 1497 1495 1493 1489 1486 1487 1482 1479 1475 1474 1481 1470 1476 1484 1483 1478 1475 1471 1466 1463 1458 1455 1455 1454 1454 1459 1468 1467 1446 1470 1474 1483 1493 1499 1505 1511 1515 1517 1517 1519 1521
1500 1503 1502 1498 1495 1491 1489 1478 1480 1480 1475 1481 1479 1490 1472 1489 1492 1485 1480 1474 1470 1464 1460 1455 1454 1454 1455 1456 1456 1456 1465 1470 1464 1471 1485 1493 1499 1503 1507 1510 1509 1511 1511 1514
1493 1497 1500 1502 1494 1487 1487 1478 1488 1485 1485 1483 1479 1483 1488 1489 1488 1486 1481 1476 1470 1465 1459 1454 1453 1454 1457 1459 1460 1461 1462 1461 1474 1473 1484 1491 1497 1501 1505 1507 1507 1508 1508 1509
1502 1500 1498 1500 1500 1500 1493 1494 1508 1521 1500 1497 1480 1494 1490 1488 1485 1483 1481 1477 1473 1467 1462 1458 1458 1457 1460 1462 1463 1467 1471 1472 1481 1484 1488 1490 1498 1502 1505 1506 1505 1506 1506 1508
1503 1499 1498 1501 1502 1501 1494 1497 1502 1510 1503 1500 1478 1478 1481 1481 1481 1481 1482 1477 1473 1470 1466 1463 1463 1464 1464 1465 1468 1472 1477 1481 1485 1487 1490 1493 1498 1500 1505 1508 1506 1508 1509 1512
1504 1506 1496 1499 1502 1501 1500 1501 1498 1493 1513 1496 1467 1476 1484 1481 1484 1483 1484 1484 1479 1475 1470 1468 1468 1468 1468 1468 1472 1475 1479 1483 1486 1489 1493 1497 1501 1504 1508 1509 1510 1511 1512 1512
1507 1505 1498 1498 1497 1497 1496 1493 1492 1496 1495 1497 1485 1481 1483 1484 1487 1487 1490 1489 1485 1482 1478 1476 1475 1474 1474 1474 1476 1479 1481 1485 1489 1493 1497 1500 1503 1506 1509 1511 1511 1511 1512 1512
1507 1504 1499 1493 1497 1500 1499 1497 1495 1497 1497 1486 1488 1486 1483 1486 1489 1491 1493 1493 1491 1488 1485 1483 1482 1483 1483 1484 1485 1487 1489 1491 1495 1499 1502 1504 1506 1507 1509 1511 1511 1513 1513 1513
1509 1499 1497 1497 1502 1500 1497 1496 1500 1497 1497 1485 1490 1481 1485 1487 1490 1494 1494 1495 1495 1494 1492 1490 1490 1489 1490 1491 1492 1493 1495 1496 1500 1503 1504 1506 1509 1510 1513 1513 1515 1516 1518 1519
1513 1503 1499 1493 1490 1493 1497 1494 1497 1498 1498 1484 1478 1481 1481 1487 1489 1494 1497 1497 1496 1497 1498 1497 1496 1497 1496 1496 1497 1499 1501 1502 1504 1507 1508 1510 1513 1514 1517 1518 1519 1520 1521 1523
1511 1502 1496 1492 1490 1491 1492 1493 1494 1496 1491 1493 1481 1485 1481 1486 1489 1494 1497 1499 1500 1500 1500 1502 1503 1502 1502 1502 1503 1505 1506 1506 1510 1511 1514 1515 1517 1520 1520 1521 1522 1522 1524 1524
1508 1501 1499 1493 1484 1490 1492 1488 1488 1489 1488 1486 1485 1483 1480 1487 1490 1494 1497 1499 1501 1503 1503 1503 1505 1506 1508 1508 1509 1509 1510 1512 1513 1516 1517 1518 1520 1521 1521 1522 1523 1523 1524 1524
1504 1501 1498 1486 1484 1483 1480 1474 1475 1480 1480 1481 1482 1478 1483 1489 1490 1492 1496 1499 1502 1504 1505 1507 1508 1509 1510 1511 1512 1513 1514 1515 1516 1517 1519 1521 1521 1522 1522 1523 1524 1524 1525 1526
1500 1502 1502 1493 1483 1485 1475 1475 1474 1476 1475 1476 1479 1481 1484 1487 1490 1492 1494 1497 1502 1505 1507 1508 1509 1511 1512 1513 1514 1515 1517 1518 1519 1521 1522 1522 1523 1523 1523 1524 1524 1524 1523 1524
1502 1499 1501 1497 1484 1470 1471 1474 1479 1478 1470 1470 1474 1479 1483 1486 1490 1492 1494 1496 1498 1501 1505 1509 1511 1512 1513 1514 1515 1516 1518 1519 1521 1521 1522 1523 1523 1523 1523 1522 1522 1522 1523 1523
1502 1502 1502 1492 1498 1487 1468 1474 1477 1478 1476 1467 1471 1476 1481 1486 1486 1481 1490 1494 1497 1500 1503 1505 1507 1510 1513 1515 1516 1517 1518 1519 1520 1520 1520 1520 1521 1521 1521 1520 1520 1520 1520 1520
1498 1500 1498 1493 1492 1475 1464 1474 1477 1480 1475 1470 1471 1474 1479 1482 1481 1482 1485 1492 1496 1498 1501 1503 1505 1508 1510 1512 1515 1518 1519 1520 1519 1519 1519 1519 1519 1519 1520 1519 1518 1517 1517 1517
1478 1486 1488 1484 1487 1485 1465 1475 1474 1467 1470 1471 1472 1474 1477 1480 1481 1482 1484 1488 1492 1496 1498 1500 1503 1506 1508 1510 1513 1515 1518 1517 1518 1518 1518 1518 1518 1518 1518 1518 1517 1516 1516 1515
1470 1458 1464 1467 1463 1461 1462 1462 1464 1466 1467 1470 1471 1473 1475 1477 1480 1481 1482 1484 1487 1491 1494 1497 1500 1503 1505 1508 1511 1513 1513 1515 1516 1516 1517 1517 1517 1517 1517 1517 1516 1515 1513 1513
1457 1455 1460 1464 1452 1457 1459 1461 1461 1462 1464 1466 1468 1470 1471 1473 1476 1478 1479 1480 1482 1485 1489 1492 1496 1499 1502 1506 1509 1511 1510 1512 1513 1515 1515 1515 1516 1516 1516 1515 1514 1513 1513 1513
1443 1452 1451 1452 1451 1455 1454 1454 1455 1458 1460 1462 1463 1465 1467 1469 1470 1473 1474 1475 1476 1479 1483 1487 1490 1495 1498 1501 1505 1506 1507 1509 1510 1512 1514 1514 1515 1515 1514 1514 1513 1513 1512 1512
1438 1439 1439 1436 1440 1444 1443 1446 1449 1452 1455 1457 1457 1458 1459 1462 1463 1466 1468 1469 1470 1472 1476 1480 1485 1489 1493 1497 1500 1502 1504 1506 1508 1509 1511 1512 1512 1513 1513 1513 1513 1512 1511 1510